Tracking 35275 objects as of 9-Sep-2026
HD Live streaming from Space Station
objects crossing your sky now

COSMOS 1528

Track COSMOS 1528 now!
10-day predictions
COSMOS 1528 is classified as:


NORAD ID: 14617
Int'l Code: 1984-001G
Launch date: January 5, 1984
Source: Commonwealth of Independent States (former USSR) (CIS)
Launch site: PLESETSK MISSILE AND SPACE COMPLEX (PKMTR)
Your satellite tracking list
Your tracking list is empty




NASA's NSSDC Master Catalog

Two Line Element Set (TLE):
1 14617U 84001G   26251.40088293 -.00000004  00000-0  77983-4 0  9995
2 14617  74.0050 236.7133 0010859 302.7130 129.2475 12.49039594945814
Source of the keplerian elements: AFSPC